COSMOS 2251 DEB, 34454

Orbit data source: Space-Track

COSMOS 2251 DEB, 34454 is space debris in LEO originally from a launch on Wed, 16 Jun 1993 UTC launched from the Plesetsk Missile And Space Complex (PKMTR). The debris from Iridium 33, an American commercial communications satellite, has been tracked extensively since its accidental collision with the defunct Russian satellite Cosmos 2251 in 2009. This event, occurring at high speed in low Earth orbit (LEO), generated thousands of pieces of space debris, significantly increasing the risk of further collisions. The Iridium 33 debris cloud has impacted space traffic management and orbital debris mitigation strategies, making it a subject of ongoing study in space situational awareness.

Loading next visibility...
Identifier
34454, 1993-036SX
Orbit
LEO
Country
Flag of CISCIS
Related business
Manufacturer
Unknown
Mission
Spacecraft
Bus & Motor
Unknown
Mass
Unknown
Launch date (UTC)
1993-06-16 (33 years ago)
Launch vehicle
Unknown
Launch site
Plesetsk Missile And Space Complex (PKMTR)
Object type
Payload
Rocket body
Debris
Shape & HBR
Unknown shape, 0.1 m
Radar Cross Section
Small (<0.1 m²)

Expand to show TLE details & history
Last TLE update: 9 hours ago

TLE from 9 hours ago
0 COSMOS 2251 DEB
1 34454U 93036SX  25355.47075543  .00000551  00000-0  18624-3 0  9991
2 34454  74.0587 261.5581 0035871 322.3520  37.5124 14.38821486881938
Epoch: 2025-12-21T11:17Z
TLE epoch observation values (Epoch: 2025-12-21T11:17:53.269Z)
Latitude
0.00002°
Longitude
1.80341°
Altitude
744.724 km
Speed
7.493 km/s
True Right ascension
17h 26m 13s
True Declination
0° 00' 00"
Sunlit
Object was in daylight at epoch
Visualization orbit readout
Latitude
Unknown
Longitude
Unknown
Altitude
Unknown
Speed
Unknown
Apparent Right ascension
Unknown
Apparent Declination
Unknown
Sunlit
N/A
Visualization observer readout
Local Sidereal Time
19:30:32
Azimuth
Unknown
Elevation
Unknown
Doppler factor
Unknown
Orbital elements
Apogee altitude
785.619 km
Perigee altitude
734.409 km
Semi-major axis
7,138.151 km
Eccentricity
0.00359
Inclination
74.0587°
RAAN
261.5581°
Arg. of periapsis
322.352°
True anomaly
37.7636°
Mean anomaly
37.5124°
Eccentric anomaly
37.63791°
Mean motion
3.59886 °/min
Orbital period
100.03 mins
BSTAR
0.00018624

Documentation

Showing up to 5 results
|